Regional Weather Roundup
Issued by NWS

Home | Current Version | Previous Version | Text Only | Print | Product List | Glossary On
Versions: 1 2 3 4 5 6 7 8 9 10 11 12 13 14 15 16 17 18 19 20 21 22 23 24 25 26 27 28 29 30 31 32 33 34 35 36 37 38 39 40 41 42 43 44 45 46 47 48 49 50
000
ASUS43 KTOP 051908
RWRKS

WEATHER ROUNDUP FOR KANSAS
NATIONAL WEATHER SERVICE GOODLAND KS
200 PM CDT TUE MAY 05 2015

NOTE:  "FAIR" INDICATES FEW OR NO CLOUDS BELOW 12,000 FEET WITH NO
SIGNIFICANT WEATHER AND/OR OBSTRUCTIONS TO VISIBILITY.

KSZ001>006-013>018-027>032-041>047-052000-
NORTHWEST KANSAS

CITY           SKY/WX    TMP DP  RH WIND       PRES   REMARKS
GOODLAND       LGT RAIN  59  57  93 SE18G26   29.91F
HAYS           CLOUDY    66  54  63 SE21G26   29.96F
HILL CITY      CLOUDY    66  57  72 S13       29.96F
RUSSELL        CLOUDY    69  56  62 SE21G28   29.96F
$$

KSZ061>065-074>080-084>089-052000-
SOUTHWEST KANSAS

CITY           SKY/WX    TMP DP  RH WIND       PRES   REMARKS
DODGE CITY     CLOUDY    63  55  75 SE22G30   29.92F
ELKHART          N/A     61  53  75 S13         N/A
GARDEN CITY    LGT RAIN  58  56  93 SE24G38   29.87F FOG
LIBERAL        CLOUDY    61  55  82 SE23      29.87F
PRATT          CLOUDY    68  50  52 SE21G26   29.96F
$$

KSZ066>073-081>083-090>101-052000-
SOUTHEAST KANSAS

CITY           SKY/WX    TMP DP  RH WIND       PRES   REMARKS
CHANUTE        PTSUNNY   78  60  53 S21       30.06F
COFFEYVILLE    PTSUNNY   79  61  53 S21       30.04F
HUTCHINSON     CLOUDY    74  52  46 S23G31    29.98F
MEDICINE LODGE   N/A     71  54  54 S17G25    29.95F
NEWTON         MOSUNNY   75  52  43 S23       30.03F
PARSONS        PTSUNNY   78  61  55 S12G20    30.06F
WICHITA INTL   PTSUNNY   75  51  43 SE23G32   29.99F
WICHITA JABRA  PTSUNNY   78  52  40 SE23G30   29.99F
WICHITA MCCONL PTSUNNY   76  51  41 SE23G33   29.99F
WINFIELD       PTSUNNY   77  55  46 S21G32    30.01F
$$

KSZ007>012-019>026-033>040-048>060-102>105-052000-
NORTHEAST KANSAS

CITY           SKY/WX    TMP DP  RH WIND       PRES   REMARKS
CONCORDIA      CLOUDY    76  55  48 SE24G30   30.01F
EMPORIA        PTSUNNY   75  54  47 S20G28    30.04F
LAWRENCE       CLOUDY    79  56  45 S14       30.06F
MANHATTAN      CLOUDY    76  57  51 S16       30.03F
MARYSVILLE     CLOUDY    73  59  60 S12       30.04F
OLATHE IND     PTSUNNY   79  55  43 S13       30.08F
OLATHE EXE     PTSUNNY   78  56  46 S10       30.07F
SALINA         PTSUNNY   77  55  46 SE18G24   29.99F
TOPEKA BILLARD CLOUDY    77  54  44 SE12G23   30.05F
TOPEKA FORBES  CLOUDY    79  56  45 S14       30.05F
$$



USA.gov is the U.S. government's official web portal to all federal, state and local government web resources and services.